Date String (YYYY-MM-DD hh:mm:ss) UTC,Instrument flags,absolute air pressure of the measurement (hPa),sample flow rate (lpm),inlet stack bypass flow (lpm),air temperature of the measurement (°C),ambient temperature measured by the external sensor (°C),aerosol sample conditioner tube jacket temperature (°C),OPC LED temperature (°C),internal box temperature (°C),relative humidity of the measurement (%),span deviation,mass concentration of particles derived from Lorenz-Mie calculation of OPC scattering (μg/m³),mass concentration of particles derived from Lorenz-Mie calculation of OPC scattering (μg/m³),mass concentration of particles derived from Lorenz-Mie calculation of OPC scattering (μg/m³)
DateTimeUTC,F1_M11,P_M11,Q1_M11,Q2_M11,T1_M11,T2_M11,T3_M11,T4_M11,T5_M11,U1_M11,ZSPAN_M11,X2_M11,X0_M11,X1_M11
2023-12-03 01:00:00,SystemResetWarning,0820.2,5.00,000.00,018.8,017.8,000.0,027.2,020.0,10.2,0000.0,0000.59,0001.20,0000.38
2023-12-03 01:01:00,SystemResetWarning,0820.1,5.01,000.00,018.8,017.7,000.0,027.2,020.0,10.2,0000.0,0000.62,0001.29,0000.37
2023-12-03 01:02:00,SystemResetWarning,0820.0,5.01,000.00,018.8,017.7,000.0,027.2,020.0,10.1,0000.0,0000.64,0001.40,0000.37
2023-12-03 01:03:00,SystemResetWarning,0819.9,5.00,000.00,018.8,017.7,000.0,027.2,020.0,10.0,0000.0,0000.68,0001.57,0000.37
2023-12-03 01:04:00,SystemResetWarning,0820.0,4.99,000.00,018.8,017.6,000.0,027.2,020.0,10.2,0000.0,0000.66,0001.53,0000.37
2023-12-03 01:05:00,SystemResetWarning,0820.1,4.99,000.00,018.8,017.6,000.0,027.2,020.0,10.3,0000.0,0000.66,0002.12,0000.37
2023-12-03 01:06:00,SystemResetWarning,0819.9,5.00,000.00,018.8,017.6,000.0,027.2,020.0,10.4,0000.0,0000.68,0002.58,0000.38
2023-12-03 01:07:00,SystemResetWarning,0819.9,5.00,000.00,018.8,017.6,000.0,027.2,020.0,10.0,0000.0,0000.68,0002.71,0000.39
2023-12-03 01:08:00,SystemResetWarning,0820.0,5.01,000.00,018.8,017.6,000.0,027.2,020.0,10.3,0000.0,0000.67,0002.64,0000.41
2023-12-03 01:09:00,SystemResetWarning,0820.0,5.01,000.00,018.8,017.6,000.0,027.2,020.0,10.4,0000.0,0000.66,0002.53,0000.42
2023-12-03 01:10:00,SystemResetWarning,0820.0,5.00,000.00,018.8,017.5,000.0,027.2,020.0,10.4,0000.0,0000.66,0002.53,0000.43
2023-12-03 01:11:00,SystemResetWarning,0819.8,5.00,000.00,018.8,017.5,000.0,027.2,020.0,10.4,0000.0,0000.68,0002.57,0000.44
2023-12-03 01:12:00,SystemResetWarning,0819.7,5.00,000.00,018.8,017.5,000.0,027.2,020.0,10.3,0000.0,0000.72,0002.65,0000.46
2023-12-03 01:13:00,SystemResetWarning,0819.8,5.00,000.00,018.7,017.5,000.0,027.2,020.0,10.5,0000.0,0000.74,0002.65,0000.48
2023-12-03 01:14:00,SystemResetWarning,0819.9,5.00,000.00,018.7,017.5,000.0,027.3,020.0,10.5,0000.0,0000.74,0002.56,0000.49
2023-12-03 01:15:00,SystemResetWarning,0819.8,5.00,000.00,018.7,017.5,000.0,027.3,020.0,10.5,0000.0,0000.77,0002.56,0000.50
2023-12-03 01:16:00,SystemResetWarning,0819.8,5.00,000.00,018.7,017.5,000.0,027.3,020.0,10.6,0000.0,0000.79,0002.18,0000.51
2023-12-03 01:17:00,SystemResetWarning,0819.8,5.00,000.00,018.7,017.5,000.0,027.3,020.0,10.4,0000.0,0000.81,0001.88,0000.51
2023-12-03 01:18:00,SystemResetWarning,0819.9,5.00,000.00,018.7,017.5,000.0,027.3,020.0,10.5,0000.0,0000.88,0001.78,0000.52
2023-12-03 01:19:00,SystemResetWarning,0819.7,5.01,000.00,018.7,017.5,000.0,027.3,020.0,10.7,0000.0,0000.89,0001.79,0000.53
2023-12-03 01:20:00,SystemResetWarning,0819.7,5.01,000.00,018.7,017.5,000.0,027.3,020.0,10.7,0000.0,0000.95,0001.98,0000.53
2023-12-03 01:21:00,SystemResetWarning,0819.9,4.99,000.00,018.7,017.5,000.0,027.3,020.0,10.6,0000.0,0001.00,0002.77,0000.54
2023-12-03 01:22:00,SystemResetWarning,0819.5,5.00,000.00,018.7,017.5,000.0,027.3,020.0,10.6,0000.0,0001.02,0002.96,0000.54
2023-12-03 01:23:00,SystemResetWarning,0819.8,5.00,000.00,018.7,017.5,000.0,027.3,020.0,10.6,0000.0,0000.99,0003.67,0000.54
2023-12-03 01:24:00,SystemResetWarning,0819.7,5.00,000.00,018.7,017.5,000.0,027.3,020.0,10.3,0000.0,0001.03,0004.51,0000.53
2023-12-03 01:25:00,SystemResetWarning,0819.8,5.00,000.00,018.7,017.5,000.0,027.3,020.0,10.6,0000.0,0001.05,0006.15,0000.54
2023-12-03 01:26:00,SystemResetWarning,0819.7,5.00,000.00,018.7,017.5,000.0,027.3,020.0,10.7,0000.0,0001.06,0006.18,0000.56
2023-12-03 01:27:00,SystemResetWarning,0819.5,5.01,000.00,018.7,017.5,000.0,027.3,020.0,10.6,0000.0,0001.07,0006.20,0000.57
2023-12-03 01:28:00,SystemResetWarning,0819.5,5.00,000.00,018.7,017.6,000.0,027.3,020.0,10.7,0000.0,0001.05,0006.29,0000.57
2023-12-03 01:29:00,SystemResetWarning,0819.5,5.00,000.00,018.7,017.6,000.0,027.3,020.0,10.7,0000.0,0001.03,0006.55,0000.56
2023-12-03 01:30:00,SystemResetWarning,0819.3,5.00,000.00,018.7,017.6,000.0,027.3,020.0,10.7,0000.0,0001.08,0007.17,0000.56
2023-12-03 01:31:00,SystemResetWarning,0819.3,5.00,000.00,018.7,017.6,000.0,027.3,020.0,10.7,0000.0,0001.11,0007.50,0000.57
2023-12-03 01:32:00,SystemResetWarning,0819.3,5.00,000.00,018.7,017.6,000.0,027.3,020.0,10.8,0000.0,0001.10,0007.01,0000.58
2023-12-03 01:33:00,SystemResetWarning,0819.2,5.00,000.00,018.7,017.6,000.0,027.3,020.0,10.7,0000.0,0001.09,0007.32,0000.58
2023-12-03 01:34:00,SystemResetWarning,0819.2,5.00,000.00,018.7,017.5,000.0,027.3,020.0,10.5,0000.0,0001.08,0007.88,0000.59
2023-12-03 01:35:00,SystemResetWarning,0819.3,5.00,000.00,018.7,017.5,000.0,027.3,020.0,10.4,0000.0,0001.06,0007.35,0000.59
2023-12-03 01:36:00,SystemResetWarning,0819.3,5.00,000.00,018.7,017.6,000.0,027.3,020.0,10.4,0000.0,0001.04,0005.98,0000.58
2023-12-03 01:37:00,SystemResetWarning,0819.3,5.00,000.00,018.7,017.6,000.0,027.3,020.0,10.6,0000.0,0001.02,0005.70,0000.57
2023-12-03 01:38:00,SystemResetWarning,0819.4,5.01,000.00,018.7,017.6,000.0,027.3,020.0,10.7,0000.0,0001.02,0006.18,0000.56
2023-12-03 01:39:00,SystemResetWarning,0819.4,5.00,000.00,018.7,017.6,000.0,027.2,020.0,10.7,0000.0,0001.06,0007.05,0000.57
2023-12-03 01:40:00,SystemResetWarning,0819.3,5.00,000.00,018.7,017.6,000.0,027.2,020.0,10.8,0000.0,0001.04,0007.47,0000.57
2023-12-03 01:41:00,SystemResetWarning,0819.4,5.00,000.00,018.7,017.6,000.0,027.2,020.0,10.6,0000.0,0001.00,0007.03,0000.57
2023-12-03 01:42:00,SystemResetWarning,0819.3,4.99,000.00,018.7,017.5,000.0,027.2,020.0,10.4,0000.0,0000.96,0006.61,0000.55
2023-12-03 01:43:00,SystemResetWarning,0819.3,4.99,000.00,018.7,017.6,000.0,027.2,020.0,10.5,0000.0,0000.98,0006.78,0000.55
2023-12-03 01:44:00,SystemResetWarning,0819.4,5.00,000.00,018.7,017.5,000.0,027.2,020.0,10.5,0000.0,0001.00,0006.27,0000.55
2023-12-03 01:45:00,SystemResetWarning,0819.4,5.01,000.00,018.7,017.5,000.0,027.2,020.0,10.3,0000.0,0001.05,0004.84,0000.55
2023-12-03 01:46:00,SystemResetWarning,0819.4,5.01,000.00,018.7,017.5,000.0,027.3,020.0,10.4,0000.0,0001.03,0004.90,0000.54
2023-12-03 01:47:00,SystemResetWarning,0819.3,5.01,000.00,018.7,017.5,000.0,027.3,020.0,10.2,0000.0,0000.99,0004.78,0000.53
2023-12-03 01:48:00,SystemResetWarning,0819.3,5.00,000.00,018.7,017.5,000.0,027.3,020.0,10.2,0000.0,0001.00,0004.81,0000.54
2023-12-03 01:49:00,SystemResetWarning,0819.2,5.00,000.00,018.7,017.5,000.0,027.2,020.0,10.5,0000.0,0000.99,0004.37,0000.53
2023-12-03 01:50:00,SystemResetWarning,0819.2,5.00,000.00,018.7,017.6,000.0,027.2,020.0,10.4,0000.0,0000.95,0003.19,0000.51
2023-12-03 01:51:00,SystemResetWarning,0819.3,5.00,000.00,018.7,017.6,000.0,027.2,020.0,10.2,0000.0,0000.92,0002.16,0000.50
2023-12-03 01:52:00,SystemResetWarning,0819.4,5.00,000.00,018.7,017.5,000.0,027.2,020.0,10.2,0000.0,0000.90,0002.37,0000.49
2023-12-03 01:53:00,SystemResetWarning,0819.4,5.00,000.00,018.7,017.5,000.0,027.2,020.0,10.4,0000.0,0000.88,0002.38,0000.49
2023-12-03 01:54:00,SystemResetWarning,0819.5,4.99,000.00,018.7,017.6,000.0,027.2,020.0,10.5,0000.0,0000.80,0002.02,0000.48
2023-12-03 01:55:00,SystemResetWarning,0819.4,4.99,000.00,018.7,017.6,000.0,027.2,020.0,10.3,0000.0,0000.81,0002.06,0000.47
2023-12-03 01:56:00,SystemResetWarning,0819.4,5.00,000.00,018.7,017.6,000.0,027.2,020.0,10.3,0000.0,0000.77,0002.18,0000.46
2023-12-03 01:57:00,SystemResetWarning,0819.4,5.00,000.00,018.7,017.6,000.0,027.2,020.0,10.3,0000.0,0000.77,0002.05,0000.46
2023-12-03 01:58:00,SystemResetWarning,0819.4,5.00,000.00,018.7,017.6,000.0,027.2,020.0,10.1,0000.0,0000.80,0002.08,0000.45
2023-12-03 01:59:00,SystemResetWarning,0819.3,5.01,000.00,018.7,017.7,000.0,027.2,020.0,10.0,0000.0,0000.78,0002.10,0000.44
